Overview Statistics Trail Chart Weather Telemetry Raw packets
 

This is the latest recevied weather packets stored in our database for station/object M0HPP-13. If no packets are shown the sender has not sent any weather packets the latest 10 day(s).

<< 12 13 14 15 16 17 18 >>
Time Temp. Humidity Pressure Rain* Wind** Luminosity Snow
1788435486 16.11° C 74% 1005.2 hPa 0 mm - 121 W/m² -
1788434886 15.56° C 77% 1005.3 hPa 0 mm - 148 W/m² -
1788434286 15.56° C 78% 1005.4 hPa 0 mm - 167 W/m² -
1788433686 15° C 77% 1005.4 hPa 0 mm - 158 W/m² -
1788433086 15° C 74% 1005.3 hPa 0 mm - 160 W/m² -
1788432486 15.56° C 73% 1005.1 hPa 0 mm - 125 W/m² -
1788431886 15.56° C 72% 1004.9 hPa 0 mm - 142 W/m² -
1788431286 16.67° C 69% 1004.7 hPa 0 mm - 156 W/m² -
1788430686 17.22° C 67% 1004.6 hPa 0 mm - 264 W/m² -
1788430086 16.67° C 70% 1004.9 hPa 0 mm - 353 W/m² -
1788429486 16.11° C 69% 1005.1 hPa 0 mm - 164 W/m² -
1788428886 16.11° C 71% 1005.2 hPa 0 mm - 243 W/m² -
1788428286 15.56° C 70% 1005.3 hPa 0 mm - 181 W/m² -
1788427686 15° C 72% 1005.2 hPa 0 mm - 173 W/m² -
1788427086 15° C 71% 1005 hPa 0 mm - 118 W/m² -
1788426486 15° C 74% 1005 hPa 0 mm - 137 W/m² -
1788425886 15° C 74% 1005.1 hPa 0 mm - 150 W/m² -
1788425286 15.56° C 72% 1005 hPa 0 mm - 147 W/m² -
1788424686 16.11° C 71% 1004.9 hPa 0 mm - 203 W/m² -
1788424086 16.11° C 71% 1004.6 hPa 0 mm - 231 W/m² -
1788423496 15.56° C 73% 1004.6 hPa 0 mm - 264 W/m² -
1788422886 14.44° C 77% 1004.8 hPa 0 mm - 242 W/m² -
1788422286 14.44° C 77% 1004.9 hPa 0 mm - 147 W/m² -
1788421686 13.89° C 82% 1004.9 hPa 0 mm - 150 W/m² -
1788421086 13.89° C 83% 1004.7 hPa 0 mm - 68 W/m² -

* Rain latest hour (hover to see other rain measurements)
** Current wind speed in m/s (hover to see current wind gust speed)